When you browse on this site, cookies collect data to enhance your experience and personalize the content and advertising you see.
Visit our Privacy Policy to learn more. By continuing to use the site, you agree to this use of cookies and data.
  • In Hungary
  • List of Countries
  • For 7 days
  • Water Temperature
  • Satellite Maps
  • Weather Map
  • News
  • Weather Widgets
  • user-avatar
    Login

    Hourly Weather Voyinka

    Today, 20 July, Saturday

    Time Temperature Precipitation Wind Pressure Humidity
    00:00 +21°C° 0 mm 2 mps 762 mmHg 63%
    01:00 +21°C° 0 mm 1 mps 762 mmHg 66%
    02:00 +21°C° 0 mm 1 mps 762 mmHg 66%
    03:00 +21°C° 0 mm 1 mps 762 mmHg 65%
    04:00 +21°C° 0 mm 1 mps 762 mmHg 64%
    05:00 +21°C° 0 mm 1 mps 763 mmHg 63%
    06:00 +24°C° 0 mm 1 mps 763 mmHg 54%
    07:00 +26°C° 0 mm 1 mps 763 mmHg 46%
    08:00 +28°C° 0 mm 1 mps 763 mmHg 37%
    09:00 +29°C° 0 mm 2 mps 763 mmHg 35%
    10:00 +30°C° 0 mm 2 mps 763 mmHg 32%
    11:00 +31°C° 0 mm 3 mps 763 mmHg 30%
    12:00 +31°C° 0 mm 3 mps 763 mmHg 30%
    13:00 +32°C° 0 mm 4 mps 763 mmHg 31%
    14:00 +33°C° 0 mm 4 mps 762 mmHg 31%
    15:00 +32°C° 0 mm 4 mps 763 mmHg 31%
    16:00 +32°C° 0 mm 4 mps 763 mmHg 32%
    17:00 +32°C° 0 mm 4 mps 763 mmHg 32%
    18:00 +29°C° 0 mm 3 mps 763 mmHg 36%
    19:00 +28°C° 0 mm 3 mps 763 mmHg 40%
    20:00 +26°C° 0 mm 2 mps 763 mmHg 43%
    21:00 +25°C° 0 mm 2 mps 763 mmHg 46%
    22:00 +25°C° 0 mm 1 mps 763 mmHg 48%
    23:00 +24°C° 0 mm 1 mps 763 mmHg 51%

    Tomorrow, 21 July, Sunday

    Time Temperature Precipitation Wind Pressure Humidity
    00:00 +23°C° 0 mm 1 mps 763 mmHg 51%
    01:00 +23°C° 0 mm 1 mps 763 mmHg 51%
    02:00 +23°C° 0 mm 1 mps 762 mmHg 51%
    03:00 +23°C° 0 mm 1 mps 762 mmHg 53%
    04:00 +23°C° 0 mm 2 mps 762 mmHg 54%
    05:00 +23°C° 0 mm 2 mps 762 mmHg 56%
    06:00 +25°C° 0 mm 3 mps 762 mmHg 49%
    07:00 +27°C° 0 mm 3 mps 762 mmHg 43%
    08:00 +29°C° 0 mm 3 mps 762 mmHg 37%
    09:00 +30°C° 0 mm 3 mps 762 mmHg 34%
    10:00 +31°C° 0 mm 3 mps 762 mmHg 31%
    11:00 +33°C° 0 mm 4 mps 762 mmHg 28%
    12:00 +33°C° 0 mm 4 mps 762 mmHg 27%
    13:00 +34°C° 0 mm 4 mps 761 mmHg 27%
    14:00 +34°C° 0 mm 4 mps 761 mmHg 26%
    15:00 +34°C° 0 mm 4 mps 761 mmHg 27%
    16:00 +33°C° 0 mm 4 mps 761 mmHg 28%
    17:00 +33°C° 0 mm 4 mps 761 mmHg 29%
    18:00 +30°C° 0 mm 3 mps 761 mmHg 35%
    19:00 +28°C° 0 mm 2 mps 761 mmHg 41%
    20:00 +26°C° 0 mm 1 mps 762 mmHg 47%
    21:00 +25°C° 0 mm 1 mps 762 mmHg 49%
    22:00 +25°C° 0 mm 1 mps 762 mmHg 51%
    23:00 +24°C° 0 mm 1 mps 762 mmHg 53%

    Day after tomorrow, 22 July, Monday

    Time Temperature Precipitation Wind Pressure Humidity
    00:00 +24°C° 0 mm 1 mps 762 mmHg 53%
    01:00 +24°C° 0 mm 1 mps 762 mmHg 53%
    02:00 +24°C° 0 mm 1 mps 762 mmHg 53%
    03:00 +23°C° 0 mm 1 mps 762 mmHg 52%
    04:00 +23°C° 0 mm 1 mps 762 mmHg 52%
    05:00 +23°C° 0 mm 1 mps 762 mmHg 52%
    06:00 +26°C° 0 mm 1 mps 762 mmHg 46%
    07:00 +28°C° 0 mm 1 mps 761 mmHg 41%
    08:00 +30°C° 0 mm 1 mps 761 mmHg 35%
    09:00 +31°C° 0 mm 1 mps 761 mmHg 33%
    10:00 +32°C° 0 mm 2 mps 761 mmHg 31%
    11:00 +35°C° 0 mm 3 mps 761 mmHg 29%
    12:00 +34°C° 0 mm 3 mps 761 mmHg 29%
    13:00 +34°C° 0 mm 3 mps 761 mmHg 30%
    14:00 +34°C° 0 mm 3 mps 760 mmHg 31%
    15:00 +34°C° 0 mm 4 mps 760 mmHg 31%
    16:00 +33°C° 0 mm 4 mps 760 mmHg 32%
    17:00 +33°C° 0 mm 4 mps 760 mmHg 33%
    18:00 +30°C° 0 mm 3 mps 760 mmHg 39%
    19:00 +28°C° 0 mm 3 mps 760 mmHg 45%
    20:00 +26°C° 0 mm 2 mps 759 mmHg 52%
    21:00 +25°C° 0 mm 2 mps 759 mmHg 55%
    22:00 +25°C° 0 mm 2 mps 759 mmHg 59%
    23:00 +24°C° 0 mm 2 mps 759 mmHg 63%

    23 July, Tuesday

    Time Temperature Precipitation Wind Pressure Humidity
    00:00 +24°C° 0 mm 3 mps 759 mmHg 68%
    01:00 +22°C° 0 mm 3 mps 759 mmHg 73%
    02:00 +22°C° 0 mm 3 mps 758 mmHg 78%
    03:00 +22°C° 0 mm 3 mps 758 mmHg 80%
    04:00 +22°C° 0 mm 3 mps 758 mmHg 82%
    05:00 +23°C° 0 mm 2 mps 758 mmHg 84%
    06:00 +24°C° 0 mm 3 mps 758 mmHg 78%
    07:00 +25°C° 0 mm 3 mps 758 mmHg 71%
    08:00 +26°C° 0 mm 3 mps 758 mmHg 65%
    09:00 +26°C° 0 mm 3 mps 758 mmHg 65%
    10:00 +25°C° 0 mm 3 mps 758 mmHg 65%
    11:00 +25°C° 0 mm 2 mps 758 mmHg 65%
    12:00 +26°C° 0 mm 3 mps 758 mmHg 60%
    13:00 +27°C° 0 mm 3 mps 758 mmHg 56%
    14:00 +28°C° 0 mm 3 mps 757 mmHg 51%
    15:00 +28°C° 0 mm 3 mps 757 mmHg 51%
    16:00 +28°C° 0 mm 2 mps 757 mmHg 51%
    17:00 +28°C° 0 mm 2 mps 757 mmHg 50%
    18:00 +26°C° 0.1 mm 2 mps 757 mmHg 57%
    19:00 +25°C° 0.1 mm 2 mps 757 mmHg 63%
    20:00 +24°C° 0.1 mm 1 mps 757 mmHg 70%
    21:00 +23°C° 0.7 mm 1 mps 757 mmHg 72%
    22:00 +23°C° 0.7 mm 1 mps 757 mmHg 74%
    23:00 +22°C° 0.7 mm 1 mps 757 mmHg 77%

    24 July, Wednesday

    Time Temperature Precipitation Wind Pressure Humidity
    00:00 +22°C° 0.1 mm 1 mps 757 mmHg 77%
    01:00 +22°C° 0.1 mm 1 mps 756 mmHg 78%
    02:00 +22°C° 0.1 mm 1 mps 756 mmHg 79%
    03:00 +21°C° 0.2 mm 1 mps 756 mmHg 80%
    04:00 +21°C° 0.2 mm 1 mps 756 mmHg 81%
    05:00 +20°C° 0.2 mm 2 mps 756 mmHg 82%
    06:00 +23°C° 0.1 mm 2 mps 756 mmHg 74%
    07:00 +24°C° 0.1 mm 2 mps 756 mmHg 66%
    08:00 +26°C° 0.1 mm 2 mps 756 mmHg 59%
    09:00 +27°C° 0 mm 3 mps 756 mmHg 53%
    10:00 +28°C° 0 mm 3 mps 756 mmHg 48%
    11:00 +29°C° 0 mm 3 mps 756 mmHg 43%
    12:00 +29°C° 0 mm 4 mps 756 mmHg 41%
    13:00 +29°C° 0 mm 4 mps 756 mmHg 38%
    14:00 +30°C° 0 mm 5 mps 756 mmHg 36%
    15:00 +29°C° 0 mm 5 mps 756 mmHg 39%
    16:00 +28°C° 0 mm 6 mps 756 mmHg 42%
    17:00 +27°C° 0 mm 7 mps 756 mmHg 45%
    18:00 +24°C° 0 mm 6 mps 756 mmHg 53%
    19:00 +23°C° 0 mm 6 mps 756 mmHg 62%
    20:00 +22°C° 0 mm 5 mps 756 mmHg 71%
    21:00 +21°C° 0 mm 4 mps 756 mmHg 71%
    22:00 +21°C° 0 mm 3 mps 756 mmHg 72%
    23:00 +21°C° 0 mm 2 mps 757 mmHg 72%

    25 July, Thursday

    Time Temperature Precipitation Wind Pressure Humidity
    00:00 +21°C° 0.1 mm 2 mps 756 mmHg 71%
    01:00 +21°C° 0.1 mm 2 mps 756 mmHg 70%
    02:00 +21°C° 0.1 mm 2 mps 756 mmHg 69%
    03:00 +21°C° 0.1 mm 2 mps 756 mmHg 70%
    04:00 +20°C° 0.1 mm 2 mps 756 mmHg 71%
    05:00 +20°C° 0.1 mm 2 mps 756 mmHg 71%
    06:00 +21°C° 0.2 mm 2 mps 756 mmHg 67%
    07:00 +23°C° 0.2 mm 2 mps 757 mmHg 63%
    08:00 +24°C° 0.2 mm 2 mps 757 mmHg 59%
    09:00 +25°C° 0 mm 2 mps 757 mmHg 54%
    10:00 +26°C° 0 mm 3 mps 757 mmHg 48%
    11:00 +28°C° 0 mm 3 mps 757 mmHg 43%
    12:00 +29°C° 0.1 mm 4 mps 757 mmHg 40%
    13:00 +30°C° 0.1 mm 4 mps 757 mmHg 38%
    14:00 +32°C° 0.1 mm 5 mps 757 mmHg 36%
    15:00 +30°C° 0.1 mm 5 mps 757 mmHg 41%
    16:00 +29°C° 0.1 mm 5 mps 757 mmHg 45%
    17:00 +28°C° 0.1 mm 5 mps 757 mmHg 50%
    18:00 +27°C° 0.2 mm 4 mps 757 mmHg 55%
    19:00 +26°C° 0.2 mm 3 mps 757 mmHg 60%
    20:00 +25°C° 0.2 mm 2 mps 757 mmHg 65%
    21:00 +24°C° 0 mm 3 mps 757 mmHg 67%
    22:00 +24°C° 0 mm 3 mps 757 mmHg 70%
    23:00 +22°C° 0 mm 3 mps 757 mmHg 72%
    Show more